Theta_e
313 314 314 314 314 315 315 316 316 316 316 316 315 315 315 314 314 314 314 314 314 314 314 313 313 312 307 299 298 306 305 305 304 302 301 299 296 295 291 294 295 292 293 295 295 296 298
313 314 314 314 315 315 315 315 316 315 315 314 314 313 313 313 313 313 313 313 313 313 313 313 313 311 303 293 305 305 304 304 303 302 300 299 297 298 294 293 293 295 295 295 296 295 295
313 313 313 314 314 314 314 314 314 314 313 313 312 312 312 312 312 312 312 312 312 313 313 313 313 309 300 298 307 307 305 302 303 302 298 301 299 295 295 291 296 294 290 292 293 294 294
313 313 313 313 314 314 314 313 313 312 312 312 311 311 312 312 312 312 312 312 311 311 312 312 312 306 295 306 307 303 304 301 303 304 302 303 302 297 294 295 293 289 289 284 290 292 294
312 313 312 312 313 313 312 312 312 312 311 311 312 312 312 312 313 312 311 311 308 311 310 311 306 301 293 305 299 301 302 298 300 301 302 301 300 294 294 287 285 287 281 284 286 293 292
312 312 312 312 312 312 312 312 311 311 311 311 311 311 311 312 313 311 310 308 303 308 304 305 303 295 298 293 298 299 302 300 297 297 296 296 294 289 289 285 278 281 281 284 284 289 290
312 312 312 312 312 311 312 311 311 311 311 310 310 310 310 310 310 309 307 304 297 297 297 292 292 292 294 298 301 298 300 297 297 295 288 292 286 283 286 287 286 285 283 282 284 288 287
312 312 312 312 311 311 311 311 311 311 310 309 310 310 310 309 309 307 305 296 296 298 288 295 295 294 297 298 291 294 298 291 291 286 290 287 282 287 289 288 286 284 282 281 285 287 286
312 312 312 311 311 311 311 311 310 309 308 309 309 309 309 308 307 306 301 298 303 301 289 291 293 292 294 296 290 290 294 292 288 286 286 283 285 289 287 285 283 284 282 281 281 285 287
312 312 312 311 311 311 311 310 309 308 308 307 308 309 308 307 303 302 299 302 304 302 285 286 287 291 293 293 288 294 295 293 288 284 285 285 289 287 286 284 285 280 286 284 283 281 277
312 312 312 311 311 311 311 310 308 307 307 308 308 308 307 305 302 298 299 303 303 297 275 285 287 296 293 288 289 290 296 291 285 284 286 282 285 284 282 283 285 283 287 285 284 282 281
312 312 312 312 312 311 310 309 307 306 307 308 308 307 306 303 303 302 303 301 297 283 275 281 287 286 286 287 288 289 290 292 291 286 287 287 290 287 285 286 287 287 285 285 285 282 274
312 312 312 312 312 311 310 309 307 306 307 308 308 305 304 303 298 303 302 295 284 277 285 281 281 285 284 283 284 285 284 283 282 279 278 281 283 287 288 284 287 285 282 275 273 273 272
313 312 312 312 312 311 310 309 306 306 307 307 304 303 301 300 302 301 298 289 276 278 279 284 283 284 280 282 283 283 283 281 285 283 278 274 272 282 287 283 282 283 282 276 269 271 275
313 313 313 312 312 311 310 308 306 306 307 305 301 305 304 301 300 299 293 282 279 280 282 281 282 279 280 282 282 282 281 280 283 284 275 274 275 285 285 286 285 283 280 286 279 281 278
313 313 313 313 312 312 311 308 306 306 306 303 301 299 300 299 299 297 287 280 280 283 284 283 277 279 276 279 279 279 279 283 282 284 284 279 274 282 285 287 286 286 288 278 279 273 273
313 313 313 313 312 312 310 308 306 306 303 301 300 292 299 298 297 293 283 282 280 285 285 281 279 278 279 278 279 278 279 283 284 282 283 281 279 278 283 283 282 283 282 282 282 280 275
313 313 313 313 312 311 309 307 306 305 302 300 298 286 299 298 287 284 283 281 283 284 287 284 284 281 279 279 277 277 278 281 286 283 277 282 278 274 278 285 288 288 285 283 278 276 279
313 312 313 312 312 311 309 308 305 304 301 300 290 293 297 296 284 285 284 281 283 283 284 283 282 283 285 279 275 278 280 284 284 282 280 282 277 273 279 283 285 281 283 286 285 284 280
312 312 313 312 312 310 309 308 305 303 299 299 293 284 288 290 288 283 281 281 280 286 284 285 283 284 281 277 279 277 278 282 284 283 286 284 278 275 272 276 279 279 280 283 285 279 281
312 312 313 312 312 310 309 308 306 304 299 298 291 285 282 284 285 284 282 280 279 280 285 285 282 281 279 275 275 275 279 280 283 284 283 281 274 277 278 279 281 280 278 281 278 279 280
312 312 312 312 311 310 309 308 306 304 299 296 291 287 283 282 282 283 282 281 279 281 281 280 279 281 281 276 277 275 278 279 278 282 280 282 275 277 276 283 283 279 278 279 279 277 279
312 312 312 312 311 309 308 308 306 304 300 296 291 289 290 283 283 282 283 281 281 283 283 284 283 280 279 281 283 283 283 282 281 278 278 278 277 275 273 280 280 277 275 277 280 279 278
312 312 312 312 310 309 308 308 306 304 299 298 294 293 289 285 282 283 282 282 281 282 280 283 284 280 284 288 287 285 282 281 281 281 282 278 277 277 274 279 273 279 281 281 278 278 279
312 311 311 311 310 308 308 307 306 304 299 298 294 293 290 285 284 284 283 282 283 283 281 281 283 286 288 284 279 278 279 278 278 279 280 282 278 275 275 276 281 280 278 276 276 277 279
311 311 311 310 309 308 307 307 306 303 299 298 295 296 292 287 286 285 283 283 280 281 282 281 286 288 286 282 279 274 272 272 274 276 284 282 281 277 277 276 271 276 279 281 283 274 280
311 311 310 310 309 308 307 307 305 302 300 298 294 294 293 287 286 284 284 282 283 281 279 281 282 282 285 280 277 274 275 274 273 273 274 277 278 276 277 278 277 279 279 284 272 271 280
311 310 310 309 308 307 307 306 305 302 300 299 292 293 293 288 285 284 285 283 284 283 280 282 282 282 281 278 277 275 276 277 275 277 276 276 275 275 277 273 270 280 279 274 277 280 280
310 310 309 309 308 307 307 306 305 302 299 298 292 291 293 288 285 288 288 288 286 286 283 283 281 280 280 278 279 278 277 278 275 276 282 276 277 275 277 276 281 281 279 281 281 278 279
Wind_Speed
3 5 5 5 6 7 7 8 7 7 7 6 7 6 6 7 8 9 10 10 10 10 10 10 11 7 7 6 10 5 3 6 13 8 9 9 10 11 13 10 11 17 19 19 19 22 20
3 4 4 5 5 6 6 7 7 7 6 7 7 7 8 10 11 11 11 12 12 12 11 9 9 3 8 12 3 2 6 13 9 8 10 8 7 11 12 16 17 16 19 17 17 19 22
2 3 4 4 4 5 5 6 6 6 7 7 8 10 11 11 11 13 14 14 14 13 11 9 7 7 11 17 5 8 12 9 9 10 12 11 10 11 11 16 13 12 17 18 19 17 21
1 2 2 2 4 4 5 5 5 6 6 8 9 9 9 11 12 15 16 16 16 13 11 8 3 5 8 8 8 12 10 12 11 10 11 12 11 15 18 15 19 19 21 20 17 21 22
0 1 2 1 2 3 3 3 4 5 6 8 8 8 8 11 14 15 18 16 7 5 2 2 5 4 10 3 7 8 12 11 14 12 12 9 11 15 15 15 16 17 18 22 18 15 17
2 2 2 1 1 2 2 3 3 4 6 7 7 9 11 12 14 13 18 11 1 4 1 3 1 6 6 9 15 14 10 9 10 10 11 12 8 11 10 12 16 19 18 20 17 15 18
4 4 4 3 2 1 1 1 2 4 6 7 9 11 13 12 11 12 13 4 4 5 7 8 16 14 19 13 14 7 14 10 11 9 13 12 10 15 19 19 23 21 24 25 21 19 19
6 5 5 4 2 2 1 1 2 4 5 7 9 12 14 14 6 10 6 5 4 6 11 10 11 10 13 8 11 16 15 7 8 16 15 14 19 23 22 21 22 25 25 26 25 23 21
7 6 6 5 4 4 3 1 3 3 5 6 9 12 14 16 3 3 6 7 5 1 6 5 5 8 6 6 19 23 5 10 14 17 17 20 22 21 22 19 22 27 27 25 24 20 20
8 7 6 5 4 3 3 3 2 3 4 6 9 12 13 17 5 5 3 9 4 2 4 4 2 2 5 20 6 13 6 8 9 15 19 17 17 17 22 25 24 27 25 24 23 18 16
9 8 7 6 5 5 5 4 2 1 4 6 9 11 10 9 7 5 8 7 1 4 6 9 3 3 15 11 16 0 11 10 19 19 11 21 25 23 22 28 24 27 18 22 22 19 18
10 9 8 7 7 7 6 4 2 1 5 6 8 9 10 3 3 5 8 4 3 4 4 6 5 18 20 9 13 9 11 11 15 15 18 22 21 22 27 26 22 16 17 11 19 14 15
12 11 9 8 8 8 7 5 3 3 6 8 8 5 5 3 5 10 6 4 4 3 7 8 11 15 20 14 14 12 21 13 9 11 18 26 16 15 4 9 4 9 12 7 8 10 13
13 12 10 10 9 9 7 5 2 4 6 8 5 3 3 3 6 7 4 2 3 1 4 9 13 18 8 13 11 17 14 13 9 14 19 13 25 9 2 6 9 10 11 5 7 11 13
15 12 11 10 10 9 8 6 3 5 6 7 3 1 1 5 6 4 3 2 3 3 6 12 17 5 4 8 11 13 17 8 8 12 13 14 13 18 18 19 8 9 11 15 5 9 10
16 13 12 11 9 9 8 5 4 4 6 6 4 3 1 9 5 4 3 2 2 2 6 4 6 3 10 13 13 16 11 5 10 13 16 7 20 11 19 2 4 6 7 8 4 6 6
17 15 14 12 11 10 8 6 4 3 4 2 2 3 3 7 3 2 2 2 4 3 3 3 5 8 9 13 15 13 8 15 5 21 21 16 6 17 16 6 2 4 4 8 8 9 6
19 16 15 14 13 12 9 8 4 2 1 2 1 2 3 4 2 1 2 2 3 5 3 6 5 8 9 14 11 10 9 14 16 19 19 9 7 9 19 11 3 3 4 16 6 6 7
20 18 16 15 14 13 11 8 4 3 2 2 1 2 3 3 2 2 2 3 3 4 6 4 5 3 5 7 10 10 11 8 20 25 8 13 5 10 5 1 8 4 10 10 16 8 7
21 18 17 16 15 14 12 9 6 5 3 1 1 2 3 4 1 1 4 1 5 3 8 7 11 10 7 9 6 12 17 12 23 18 13 15 6 8 9 14 13 10 19 22 5 5 8
22 20 19 18 17 16 13 9 8 8 5 1 3 1 1 2 1 2 2 2 4 6 3 8 5 3 8 6 14 5 13 20 15 3 16 5 6 11 18 18 12 13 24 21 18 14 9
23 21 21 19 18 17 14 11 10 9 6 2 1 2 2 0 3 4 1 2 5 7 4 7 6 12 11 9 11 21 20 17 10 10 19 9 6 15 6 5 10 8 26 20 22 21 12
24 22 22 21 19 18 16 13 12 12 5 2 1 2 0 2 1 2 0 3 5 9 5 8 14 15 11 8 14 18 18 17 18 18 11 8 8 10 7 14 14 3 24 15 11 19 13
26 24 23 22 21 20 17 14 13 12 4 1 2 2 2 1 2 3 3 4 8 8 11 12 13 7 7 20 20 11 8 10 11 12 11 11 13 4 8 13 5 5 17 10 13 24 27
26 25 24 23 22 20 17 15 14 13 9 2 2 2 2 3 2 4 4 5 8 7 5 9 8 7 15 13 6 7 2 1 3 7 10 6 6 6 5 6 2 12 22 12 10 17 28
28 26 25 24 23 22 19 16 15 14 11 4 2 0 1 1 2 1 3 3 5 6 3 4 8 9 7 3 4 7 7 6 8 15 6 7 5 4 5 5 11 15 27 27 8 18 29
30 28 26 25 24 22 20 18 17 15 12 4 3 1 1 1 2 1 2 3 3 3 4 4 9 7 6 6 4 5 4 2 7 11 10 8 5 10 11 6 4 21 30 16 13 9 20
31 29 28 26 25 23 22 20 19 17 13 3 3 1 2 1 2 2 1 2 1 2 3 6 6 2 4 6 5 4 4 5 5 5 9 7 8 7 7 8 9 26 13 12 8 10 13
32 31 28 27 26 24 22 21 20 18 13 6 3 2 1 4 3 2 4 5 3 4 3 3 3 4 4 4 2 3 3 4 4 5 7 5 5 5 8 5 5 9 8 10 10 8 12
Wind_Direction
10 31 14 6 14 13 10 13 19 27 35 38 34 14 353 350 340 333 327 318 315 311 311 315 321 351 319 301 268 97 329 315 307 290 285 298 293 290 271 284 282 271 274 273 278 280 279
31 10 18 6 12 17 21 27 30 38 41 43 35 18 2 351 339 330 320 313 309 304 303 309 317 305 311 284 42 324 298 309 283 272 276 279 291 309 291 272 272 281 292 283 279 278 276
28 12 15 6 15 23 34 37 40 43 45 42 30 16 357 339 331 322 317 312 305 296 292 297 308 291 289 263 294 294 292 280 287 273 284 284 291 278 288 289 271 277 280 276 265 259 264
1 17 0 2 22 36 48 44 39 46 44 38 26 9 343 329 328 322 319 318 314 303 278 280 300 307 269 309 318 286 279 286 274 261 271 284 279 272 261 261 267 268 266 267 261 246 249
270 330 295 336 39 46 50 60 51 43 39 34 19 353 335 328 326 320 319 322 323 353 324 270 243 279 277 342 276 304 303 292 307 288 269 272 268 251 260 249 265 247 255 263 269 243 240
231 234 261 282 54 49 11 44 42 40 40 32 5 339 329 330 327 329 320 318 328 210 144 142 75 259 230 324 319 310 290 305 286 287 263 228 233 250 243 242 254 270 260 259 255 258 256
217 233 235 220 159 97 1 38 49 41 39 26 350 335 334 334 334 340 331 304 316 200 355 294 302 284 283 319 293 280 305 307 254 248 264 245 247 252 258 251 250 262 268 275 277 276 277
215 222 234 227 183 161 207 119 80 54 34 12 345 336 337 336 329 345 342 32 34 344 311 285 277 269 277 301 289 300 322 265 259 277 288 273 256 261 270 265 258 259 260 260 266 262 264
218 220 218 222 201 186 179 171 107 63 24 2 342 337 340 341 292 304 26 37 338 248 278 292 272 289 329 300 308 305 318 291 279 279 284 280 273 278 275 259 261 253 246 254 259 271 269
221 224 218 214 217 205 185 169 113 65 14 346 342 344 345 333 263 347 8 359 340 190 288 338 350 60 319 321 265 307 308 288 282 281 296 284 278 275 275 258 243 251 241 245 254 263 264
221 226 218 216 208 202 196 175 155 58 337 342 343 350 348 4 320 326 350 342 57 233 320 351 327 355 329 325 310 44 332 283 278 291 284 267 289 292 276 264 260 265 251 251 249 248 251
219 221 219 213 208 206 195 189 206 298 318 335 345 352 332 274 286 19 334 314 236 246 309 332 310 333 333 325 314 293 313 301 268 282 274 271 285 275 266 276 267 247 227 251 242 233 239
215 218 218 214 206 203 202 199 219 298 324 335 344 9 355 328 335 331 318 255 285 327 3 322 330 327 324 321 315 326 328 321 328 316 320 308 286 310 286 300 270 189 173 213 205 208 233
211 217 214 209 205 209 203 207 236 301 332 339 352 332 55 47 331 319 285 280 305 82 298 321 315 319 306 349 328 332 321 329 344 342 314 338 321 351 103 282 305 203 191 211 218 227 238
206 209 209 210 203 209 208 204 239 300 336 339 297 324 250 9 335 305 303 351 337 352 339 325 321 328 321 315 324 320 318 312 322 347 348 308 286 308 290 281 220 160 206 223 334 264 269
202 201 201 198 203 203 205 212 244 307 346 339 323 306 66 341 330 273 38 316 291 326 324 330 309 25 314 333 329 333 308 308 337 350 349 282 295 326 323 306 182 283 308 219 227 269 220
197 196 200 191 194 197 197 215 243 327 0 327 306 357 67 340 277 34 22 308 294 282 301 257 300 291 279 321 325 321 283 300 354 339 333 301 255 293 319 7 304 197 210 221 248 275 317
195 195 197 189 188 186 194 208 230 11 255 287 350 339 35 325 23 55 304 311 303 295 271 279 277 275 281 324 305 307 273 298 327 341 327 355 291 292 299 299 335 320 271 215 232 226 215
194 192 193 187 185 185 185 200 198 87 334 306 45 289 73 322 27 342 294 277 269 299 308 285 277 258 289 307 311 296 300 292 324 334 328 2 305 299 336 160 58 345 287 248 255 298 255
194 192 187 186 182 184 183 191 163 123 114 327 344 343 354 55 359 324 313 341 318 287 284 274 282 306 324 298 253 290 295 304 330 314 327 325 263 265 292 300 305 323 348 15 191 219 273
192 190 185 186 182 181 182 182 163 148 150 240 15 69 52 339 93 314 314 310 322 340 251 305 291 254 318 294 303 247 297 315 327 42 346 320 281 294 295 281 273 31 7 15 22 350 21
192 187 184 184 182 181 178 174 169 154 160 84 170 167 167 138 266 303 204 277 319 331 291 298 260 307 309 277 278 295 303 315 309 318 328 332 282 314 288 278 336 46 10 4 26 10 1
190 187 184 181 179 177 176 174 165 164 196 126 129 119 154 128 223 270 284 308 303 328 275 266 303 311 305 316 308 286 284 281 278 294 308 309 315 330 294 330 319 38 11 355 27 25 352
187 185 185 179 178 174 173 171 168 172 199 84 136 136 172 236 245 248 275 305 300 303 277 297 302 303 296 325 303 286 268 258 260 270 262 289 315 288 294 313 45 63 18 358 350 26 14
185 184 183 179 175 173 172 170 169 170 156 115 142 177 182 273 263 260 268 301 305 298 280 292 303 307 318 309 326 319 341 300 275 258 289 301 302 312 319 320 346 358 357 343 346 26 10
181 182 181 177 173 172 172 170 166 164 147 108 123 32 225 279 221 90 322 16 327 327 306 279 312 326 334 307 339 4 17 321 319 330 335 337 261 275 312 25 14 352 337 331 301 33 356
180 177 177 174 171 172 173 166 162 162 158 116 108 310 221 232 115 187 37 7 345 290 286 310 337 330 346 355 5 15 4 261 334 334 335 336 356 16 356 29 53 352 334 332 47 336 344
176 178 173 172 169 175 174 164 161 163 156 129 89 15 298 177 123 145 64 61 303 295 332 354 292 79 329 17 1 23 324 1 291 316 332 347 340 3 346 24 10 352 351 41 343 8 1
175 174 173 168 169 176 170 163 159 161 154 134 117 108 352 82 65 51 110 68 4 342 328 9 2 348 349 315 23 298 331 319 340 354 11 40 15 354 24 46 29 333 14 16 16 26 23